Location: Santa Teresa Spring
(37.2333°N, 121.7000°W)
Time: 19:23:05
(UTC-07:00)

ISS - Visible Passes

Search period start: 26 May 2017 00:00
Search period end: 05 June 2017 00:00
Orbit: 402 x 408 km, 51.6° (Epoch: 27 May)

Date Brightness Start Highest point End Pass type
(mag) Time Alt. Az. Time Alt. Az. Time Alt. Az.
26 May -0.2 02:11:03 10° N 02:12:14 11° NNE 02:13:26 10° NE visible
26 May -3.1 03:46:06 10° NW 03:49:20 54° NE 03:52:33 10° ESE visible
26 May -0.8 22:01:57 10° WNW 22:04:23 19° NNW 22:06:49 10° NNE visible
27 May -1.2 02:54:17 10° NNW 03:01:14 - ESE 02:55:23 17° NNW visible
27 May -2.5 04:34:36 22° SSW 04:34:36 22° SSW 04:36:23 10° S visible
27 May -1.6 21:09:14 10° W 21:12:10 29° NNW 21:15:07 10° NNE visible
28 May -0.4 02:02:36 10° NNW 02:02:45 11° NNW 02:02:45 11° NNW visible
28 May -0.4 21:55:55 10° NW 21:57:08 12° NNW 21:58:21 10° N visible
29 May -0.3 01:11:05 10° N 01:11:38 12° N 01:11:38 12° N visible
29 May -0.7 21:02:37 10° WNW 21:04:47 16° NNW 21:06:58 10° NNE visible
31 May -0.3 01:02:43 10° NNW 01:02:49 10° NNW 01:02:49 10° NNW visible
31 May -0.3 20:56:56 10° NNW 20:57:30 10° NNW 20:58:03 10° N visible
01 Jun -0.6 00:11:05 10° NNW 00:12:14 14° N 00:12:14 14° N visible
01 Jun -0.7 23:19:49 10° N 23:20:39 11° NNE 23:21:28 10° NNE visible
03 Jun -0.8 00:02:45 10° NNW 00:03:51 17° NNW 00:03:51 17° NNW visible
03 Jun -1.3 23:11:00 10° NNW 23:13:16 17° NNE 23:13:23 17° NNE visible
04 Jun -0.9 22:19:30 10° N 22:20:51 12° NNE 22:22:13 10° NE visible
